CW1172 Weather Reports


time (UTC)temp
C
wind
direction
speed
KPH
gust
KPH
rain 1hr
cm
rain 24hr
cm
rain mn
cm
humidity
%
barometer
mb
20260905210012 10 263 0.0 0.0 0.00 0.00 0.69 91 1008.3
20260905204610 10 264 0.0 0.0 0.00 0.00 0.69 91 1008.0
20260905203008 10 263 0.0 0.0 0.00 0.00 0.69 91 1007.9
20260905201507 10 263 0.0 0.0 0.00 0.00 0.69 91 1007.7
20260905200004 10 263 0.0 0.0 0.00 0.00 0.69 91 1007.5
20260905194605 11 264 0.0 0.0 0.00 0.00 0.69 90 1007.1
20260905193005 11 265 0.0 0.0 0.00 0.00 0.69 90 1007.0
20260905191501 11 264 0.0 0.0 0.00 0.00 0.69 90 1006.6
20260905190100 11 264 0.0 0.0 0.00 0.00 0.69 89 1006.4
20260905184601 12 265 0.0 0.0 0.00 0.00 0.69 89 1005.9
20260905183059 12 360 0.0 0.0 0.00 0.00 0.69 89 1005.8
20260905181608 13 264 0.0 0.0 0.00 0.00 0.69 88 1005.5
20260905180052 13 263 0.0 0.0 0.00 0.00 0.69 88 1005.1
20260905174553 13 264 0.0 0.0 0.00 0.00 0.66 88 1004.5
20260905173047 13 360 0.0 0.0 0.00 0.00 0.66 88 1004.4
20260905171546 13 265 0.0 0.0 0.00 0.00 0.66 88 1004.0
20260905170044 13 264 0.0 0.0 0.00 0.00 0.66 87 1003.8
20260905164543 13 265 0.0 0.0 0.00 0.00 0.66 86 1003.5
20260905163044 14 360 0.0 0.0 0.00 0.00 0.66 86 1003.4
20260905161542 13 360 0.0 0.0 0.00 0.00 0.66 87 1003.2
20260905160108 13 360 0.0 0.0 0.00 0.00 0.66 86 1002.9
20260905154542 13 334 0.0 0.0 0.00 0.00 0.64 82 1002.7
20260905153037 14 334 0.0 0.0 0.00 0.00 0.61 80 1002.6
20260905151537 15 336 0.0 0.0 0.00 0.00 0.58 81 1002.3
20260905150035 16 218 0.0 0.0 0.00 0.00 0.58 80 1002.2
20260905144534 17 360 0.0 0.0 0.00 0.00 0.56 76 1001.9
20260905143036 17 215 0.0 0.0 0.00 0.00 0.56 75 1002.0
20260905141540 16 302 0.0 0.0 0.00 0.00 0.56 77 1001.8
20260905140036 17 21 0.0 0.0 0.00 0.00 0.56 73 1001.7
20260905134536 17 233 0.0 0.0 0.00 0.00 0.56 73 1001.5
20260905133034 17 237 0.0 0.0 0.00 0.00 0.56 72 1001.4
20260905131532 17 284 0.0 0.0 0.00 0.00 0.56 70 1001.4
20260905130031 17 130 0.0 0.0 0.00 0.00 0.56 73 1001.4
20260905124538 17 233 0.0 0.0 0.00 0.00 0.56 75 1001.1
20260905123027 17 226 0.0 0.0 0.00 0.00 0.56 72 1001.1
20260905121527 17 254 0.0 0.0 0.00 0.00 0.56 75 1001.0
20260905120027 18 248 0.0 0.0 0.00 0.00 0.56 73 1001.0
20260905114527 17 254 0.0 0.0 0.00 0.00 0.56 73 1000.9
20260905113026 18 241 0.0 0.0 0.00 0.00 0.56 73 1000.7
20260905111522 17 242 0.0 0.0 0.00 0.00 0.56 74 1000.8
20260905110021 17 254 0.0 0.0 0.00 0.00 0.56 75 1000.5
20260905104518 16 221 0.0 0.0 0.00 0.00 0.56 77 1000.4
20260905103024 15 294 0.0 0.0 0.00 0.00 0.56 78 1000.4
20260905101517 15 261 0.0 0.0 0.00 0.00 0.56 78 1000.2
20260905100014 16 234 0.0 0.0 0.00 0.00 0.56 80 1000.1
20260905094514 16 264 0.0 0.0 0.00 0.00 0.56 80 1000.1
20260905093014 16 251 0.0 0.0 0.00 0.00 0.56 80 1000.1
20260905091529 15 360 0.0 0.0 0.00 0.00 0.56 83 999.9
20260905090008 15 216 0.0 0.0 0.00 0.00 0.56 87 999.8
20260905084505 14 360 0.0 0.0 0.00 0.00 0.56 89 999.6
20260905083005 13 248 0.0 0.0 0.00 0.00 0.56 89 999.5
20260905081505 14 318 0.0 0.0 0.00 0.00 0.56 92 999.5
20260905080002 13 360 0.0 0.0 0.00 0.00 0.56 92 999.3
20260905074601 13 214 0.0 0.0 0.00 0.00 0.56 93 999.1
20260905073103 13 273 0.0 0.0 0.00 0.00 0.56 93 999.0
20260905071557 13 233 0.0 0.0 0.00 0.00 0.56 93 998.8
20260905070100 13 235 0.0 0.0 0.00 0.00 0.56 94 998.8
20260905064554 13 224 0.0 0.0 0.00 0.00 0.56 93 998.7
20260905063057 12 231 0.0 0.0 0.00 0.00 0.56 93 998.5
20260905061618 13 208 0.0 0.0 0.00 0.00 0.56 94 998.3
20260905060059 12 209 0.0 0.0 0.00 0.00 0.56 94 998.1
20260905054550 12 227 0.0 0.0 0.00 0.00 0.56 94 998.0
20260905053054 11 248 0.0 0.0 0.00 0.00 0.56 94 997.9
20260905051551 11 192 0.0 0.0 0.00 0.00 0.56 94 997.8
20260905050051 11 192 0.0 0.0 0.00 0.00 0.56 93 997.8
20260905044551 10 192 0.0 0.0 0.00 0.00 0.56 93 997.7
20260905043047 10 190 0.0 0.0 0.00 0.00 0.56 93 997.7
20260905041552 11 192 0.0 0.0 0.00 0.00 0.56 93 997.8
20260905040044 11 192 0.0 0.0 0.00 0.00 0.56 93 997.8
20260905034552 11 192 0.0 0.0 0.00 0.00 0.56 93 997.7
20260905033043 11 193 0.0 0.0 0.00 0.00 0.56 93 997.7
20260905031541 11 178 0.0 0.0 0.00 0.00 0.51 93 997.5
20260905030041 11 215 0.0 0.0 0.00 0.00 0.51 93 997.4
20260905024540 11 215 0.0 0.0 0.00 0.00 0.51 93 997.4
20260905023041 11 215 0.0 0.0 0.00 0.00 0.51 93 997.5
20260905021541 11 215 0.0 0.0 0.00 0.00 0.51 93 997.3
20260905020041 11 215 0.0 0.0 0.00 0.00 0.51 93 997.1
20260905014538 11 215 0.0 0.0 0.00 0.00 0.46 93 996.9
20260905013036 11 216 0.0 0.0 0.00 0.00 0.43 93 996.6
20260905011542 12 194 0.0 0.0 0.00 0.00 0.43 92 996.9
20260905010034 12 173 0.0 0.0 0.00 0.00 0.41 92 996.5
20260905004538 12 211 0.0 0.0 0.00 0.00 0.36 92 996.4
20260905003032 12 246 0.0 0.0 0.00 0.00 0.36 92 996.4
20260905001545 12 246 0.0 0.0 0.00 0.00 0.36 92 996.4
20260905000029 12 247 0.0 0.0 0.00 0.00 0.36 92 996.3
20260904234534 12 269 0.0 0.0 0.00 0.00 0.33 92 996.3
20260904233040 12 360 0.0 0.0 0.00 0.00 0.25 92 996.1
20260904231538 12 269 0.0 0.0 0.00 0.00 0.23 92 996.2
20260904230027 12 269 0.0 0.0 0.00 0.00 0.23 92 995.9
20260904224527 12 221 0.0 0.0 0.00 0.00 0.20 92 996.1
20260904223029 12 227 0.0 0.0 0.00 0.00 0.18 92 995.8
20260904221527 12 228 0.0 0.0 0.00 0.00 0.13 92 995.8
20260904220026 12 227 0.0 0.0 0.00 0.00 0.00 91 996.0
20260904214524 12 229 0.0 0.0 0.00 0.00 0.71 91 996.1
20260904213026 12 231 0.0 0.0 0.00 0.00 0.56 91 996.1
20260904211521 11 248 0.0 0.0 0.00 0.00 0.43 90 996.0